This demonstration page uses our WeatherBlox Daily Observations layout. Learn more.

Left ArrowRight Arrow

34.02893, -84.19858

Hourly Observations for October 27, 2019

Temp ( °F °C ) Dew Point ( °F °C ) Humidity (%) Winds ( mph kmh ) Pressure ( in mb ) Visibility ( mi km ) Precip ( " mm )
12:04 am 00:04 Cloudy with Light Rain 71 21.7 70 21.1 96 96 SSE 9 15 29.80 1009 3 5 0.02 0.51
12:25 am 00:25 Cloudy with Light Rain 71 21.7 70 21.1 96 96 S 8 13 29.77 1008 7 11 0.03 0.76
12:50 am 00:50 Cloudy 72 22 70 21 94 94 S 12 19 29.77 1008 9 14 0.03 0.76
12:53 am 00:53 Cloudy with Light Rain 71 21.7 70 21.1 96 96 S 12 19 29.78 1008 9 14 0.03 0.76
1:13 am 01:13 Cloudy with Rain 71 21.7 70 21.1 96 96 SW 10 17 29.80 1009 3 5 0.03 0.76
1:16 am 01:16 Cloudy with Rain 71 21.7 70 21.1 96 96 SW 12 19 29.80 1009 3 5 0.04 1.02
1:39 am 01:39 Cloudy with Light Rain 70 21.1 69 20.6 97 97 W 12 19 29.80 1009 4 6 0.06 1.52
1:53 am 01:53 Cloudy with Light Rain 69 20.6 67 19.4 93 93 W 10 17 29.80 1009 9 14 0.06 1.52
2:03 am 02:03 Cloudy with Light Rain 68 20 66 18.9 93 93 W 15 24 29.80 1009 7 11 0.00 0.00
2:53 am 02:53 Cloudy 67 19.4 66 18.9 97 97 WSW 7 11 29.83 1010 10 16 0.00 0.00
3:24 am 03:24 Cloudy 67 19.4 66 18.9 97 97 NW 12 19 29.83 1010 10 16 0.01 0.25
3:53 am 03:53 Cloudy 64 17.8 62 16.7 93 93 NW 8 13 29.84 1010 10 16 0.01 0.25
4:01 am 04:01 Cloudy 63 17.2 61 16.1 93 93 WNW 7 11 29.85 1011 10 16 0.00 0.00
4:50 am 04:50 Cloudy 61 16 59 15 94 94 WNW 12 19 29.85 1011 10 16 0.00 0.00
4:53 am 04:53 Cloudy 61 16.1 59 15 93 93 WNW 9 15 29.85 1011 10 16 0.00 0.00
5:53 am 05:53 Cloudy 60 15.6 58 14.4 93 93 WNW 9 15 29.88 1012 10 16 0.00 0.00
6:42 am 06:42 Mostly Cloudy 59 15 56 13.3 90 90 WNW 8 13 29.91 1013 10 16 0.00 0.00
6:53 am 06:53 Partly Cloudy 58 14.4 56 13.3 93 93 WNW 8 13 29.90 1012 10 16 0.00 0.00
7:53 am 07:53 Sunny 56 13.3 55 12.8 97 97 W 5 7 29.92 1013 10 16 0.00 0.00
8:53 am 08:53 Mostly Sunny 57 13.9 55 12.8 93 93 W 8 13 29.93 1014 10 16 0.00 0.00
9:06 am 09:06 Cloudy 57 13.9 55 12.8 93 93 WNW 7 11 29.97 1015 10 16 0.00 0.00
9:53 am 09:53 Cloudy 58 14.4 54 12.2 87 87 NW 9 15 29.96 1015 10 16 0.00 0.00
10:53 am 10:53 Mostly Cloudy 61 16.1 54 12.2 78 78 W 8 13 29.96 1014 10 16 0.00 0.00
11:29 am 11:29 Mostly Sunny 62 16.7 54 12.2 75 75 W 10 17 29.97 1015 10 16 0.00 0.00
11:53 am 11:53 Mostly Sunny 63 17.2 53 11.7 70 70 VRB 7 11 29.97 1015 10 16 0.00 0.00
12:53 pm 12:53 Sunny 66 18.9 53 11.7 63 63 WNW 10 17 29.96 1015 10 16 0.00 0.00
1:53 pm 13:53 Sunny 67 19.4 54 12.2 63 63 W 12 19 29.95 1014 10 16 0.00 0.00
2:53 pm 14:53 Sunny 70 21.1 53 11.7 55 55 WNW 12 19 29.94 1014 10 16 0.00 0.00
3:53 pm 15:53 Sunny 70 21.1 53 11.7 55 55 NW 9 15 29.94 1014 10 16 0.00 0.00
4:53 pm 16:53 Sunny 69 20.6 53 11.7 57 57 NW 8 13 29.96 1014 10 16 0.00 0.00
5:53 pm 17:53 Sunny 68 20 54 12.2 61 61 W 7 11 29.96 1015 10 16 0.00 0.00
6:53 pm 18:53 Clear 63 17.2 54 12.2 73 73 W 7 11 29.98 1015 10 16 0.00 0.00
7:53 pm 19:53 Clear 60 15.6 54 12.2 80 80 W 5 7 29.99 1016 10 16 0.00 0.00
8:53 pm 20:53 Clear 58 14.4 54 12.2 87 87 WSW 6 9 30.01 1016 10 16 0.00 0.00
9:53 pm 21:53 Clear 56 13.3 53 11.7 90 90 WSW 5 7 30.02 1017 10 16 0.00 0.00
10:53 pm 22:53 Clear 55 12.8 53 11.7 93 93 W 5 7 30.02 1017 10 16 0.00 0.00
11:53 pm 23:53 Clear 53 11.7 52 11.1 96 96 Calm 30.02 1017 10 16 0.00 0.00

Powered by AerisWeather